SCP
0 0 0 0 0 0 0 0 0 0 0 0 0 0 0 0 0 0 0 0 0 0 0 0 0 0 0 0 0 0 0 0 0 0 0 0 0 0 0 0 0 0 0 0
0 0 0 0 0 0 0 0 0 0 0 0 0 0 0 0 0 0 0 0 0 0 0 0 0 0 0 0 0 0 0 0 0 0 0 0 0 0 0 0 0 0 0 0
0 0 0 0 0 0 0 0 0 0 0 0 0 0 0 0 0 0 0 0 0 0 0 0 0 0 0 0 0 0 0 0 0 0 0 0 0 0 0 0 0 0 0 0
0 0 0 0 0 0 0 0 0 0 0 0 0 0 0 0 0 0 0 0 0 0 0 0 0 0 0 0 0 0 0 0 0 0 0 0 0 0 0 0 0 0 0 0
0 0 0 0 0 0 0 0 0 0 0 0 0 0 0 0 0 0 0 0 0 0 0 0 0 0 0 0 0 0 0 0 0 0 0 0 0 0 0 0 0 0 0 0
0 0 0 0 0 0 0 0 0 0 0 0 0 0 0 0 0 0 0 0 0 0 0 0 0 0 0 0 0 0 0 0 0 0 0 0 0 0 0 0 0 0 0 0
0 0 0 0 0 0 0 0 0 0 0 0 0 0 0 0 0 0 0 0 0 0 0 0 0 0 0 0 0 0 0 0 0 0 0 0 0 0 0 0 0 0 0 0
0 0 0 0 0 0 0 0 0 0 0 0 0 0 0 0 0 0 0 0 0 0 0 0 0 0 0 0 0 0 0 0 0 0 0 0 0 0 0 0 0 0 0 0
0 0 0 0 0 0 0 0 0 0 0 0 0 0 0 0 0 0 0 0 0 0 0 0 0 0 0 0 0 0 0 0 0 0 0 0 0 0 0 0 0 0 0 0
0 0 0 0 0 0 0 0 0 0 0 0 0 0 0 0 0 0 0 0 0 0 0 0 0 0 0 0 0 0 0 0 0 0 0 0 0 0 0 0 0 0 0 0
0 0 0 0 0 0 0 0 0 0 0 0 0 0 0 0 0 0 0 0 0 0 0 0 0 0 0 0 0 0 0 0 0 0 0 0 0 0 0 0 0 0 0 0
0 0 0 0 0 0 0 0 0 0 0 0 0 0 0 0 0 0 0 0 0 0 0 0 0 0 0 0 0 0 0 0 0 0 0 0 0 0 0 0 0 0 0 0
0 0 0 0 0 0 0 0 0 0 0 0 0 0 0 0 0 0 0 0 0 0 0 0 0 0 0 0 0 0 0 0 0 0 0 0 0 0 0 0 0 0 0 0
0 0 0 0 0 0 0 0 0 0 0 0 0 0 0 0 0 0 0 0 0 0 0 0 0 0 0 0 0 0 0 0 0 0 0 0 0 0 0 0 0 0 0 0
0 0 0 0 0 0 0 0 0 0 0 0 0 0 0 0 0 0 0 0 0 0 0 0 0 0 0 0 0 0 0 0 0 0 0 0 0 0 0 0 0 0 0 0
0 0 0 0 0 0 0 0 0 0 0 0 0 0 0 0 0 0 0 0 0 0 0 0 0 0 0 0 0 0 0 0 0 0 0 0 0 0 0 0 0 0 0 0
0 0 0 0 0 0 0 0 0 0 0 0 0 0 0 0 0 0 0 0 0 0 0 0 0 0 0 0 0 0 0 0 0 0 0 0 0 0 0 0 0 0 0 0
0 0 0 0 0 0 0 0 0 0 0 0 0 0 0 0 0 0 0 0 0 0 0 0 0 0 0 0 0 0 0 0 0 0 0 0 0 0 0 0 0 0 0 0
0 0 0 0 0 0 0 0 0 0 0 0 0 0 0 0 0 0 0 0 0 0 0 0 0 0 0 0 0 0 0 0 0 0 0 0 0 0 0 0 0 0 0 0
0 0 0 0 0 0 0 0 0 0 0 0 0 0 0 0 0 0 0 0 0 0 0 0 0 0 0 0 0 0 0 0 0 0 0 0 0 0 0 0 0 0 0 0
0 0 0 0 0 0 0 0 0 0 0 0 0 0 0 0 0 0 0 0 0 0 0 0 0 0 0 0 0 0 0 0 0 0 0 0 0 0 0 0 0 0 0 0
0 0 0 0 0 0 0 0 0 0 0 0 0 0 0 0 0 0 0 0 0 0 0 0 0 0 0 0 0 0 0 0 0 0 0 0 0 0 0 0 0 0 0 0
0 0 0 0 0 0 0 0 0 0 0 0 0 0 0 0 0 0 0 0 0 0 0 0 0 0 0 0 0 0 0 0 0 0 0 0 0 0 0 0 0 0 0 0
0 0 0 0 0 0 0 0 0 0 0 0 0 0 0 0 0 0 0 0 0 0 0 0 0 0 0 0 0 0 0 0 0 0 0 0 0 0 0 0 0 0 0 0
0 0 0 0 0 0 0 0 0 0 0 0 0 0 0 0 0 0 0 0 0 0 0 0 0 0 0 0 0 0 0 0 0 0 0 0 0 0 0 0 0 0 0 0
0 0 0 0 0 0 0 0 0 0 0 0 0 0 0 0 0 0 0 0 0 0 0 0 0 0 0 0 0 0 0 0 0 0 0 0 0 0 0 0 0 0 0 0
0 0 0 0 0 0 0 0 0 0 0 0 0 0 0 0 0 0 0 0 0 0 0 0 0 0 0 0 0 0 0 0 0 0 0 0 0 0 0 0 0 0 0 0
Wind_Speed
4 6 5 5 6 5 6 6 6 6 5 5 3 2 2 1 2 3 3 4 4 3 3 4 4 4 4 4 4 4 5 5 5 5 5 5 5 5 5 4 4 4 4 4
4 4 4 6 7 6 7 8 8 7 8 4 1 1 2 2 2 3 4 4 4 3 4 4 4 4 4 4 4 4 4 4 4 5 5 5 5 5 5 4 4 4 3 4
3 5 4 6 6 6 5 5 5 7 5 1 2 2 2 2 2 3 3 4 4 4 4 4 4 4 4 4 4 3 3 4 4 4 4 5 6 5 5 5 4 4 4 3
3 4 5 5 1 2 4 5 6 5 3 2 1 2 2 2 3 3 4 5 4 3 4 4 4 4 4 4 4 4 3 4 4 4 4 4 5 5 5 5 4 4 4 4
1 3 8 4 2 2 3 5 4 4 2 2 2 3 3 2 3 3 4 4 3 3 3 3 4 4 3 4 4 4 4 4 5 4 5 5 5 5 5 5 5 4 4 4
2 3 7 4 1 1 1 5 2 1 1 1 2 4 3 2 2 4 4 2 2 2 3 3 4 4 3 4 4 5 5 5 5 4 5 5 6 6 5 5 5 5 5 4
5 6 9 3 3 3 3 5 1 1 2 2 3 4 3 3 3 3 3 3 3 3 3 3 4 4 4 4 5 5 5 5 5 5 5 6 6 5 5 5 5 5 5 4
5 6 10 4 5 5 6 1 1 2 2 2 3 3 3 3 4 4 4 3 3 3 4 4 4 4 5 5 5 5 5 6 6 6 6 5 6 6 5 5 5 6 5 5
8 9 4 4 5 4 2 2 3 3 3 3 3 4 4 4 4 4 4 4 3 4 5 4 3 3 5 6 5 5 6 6 7 7 6 6 5 6 5 5 4 5 4 5
7 9 7 7 5 4 4 4 3 3 3 3 4 5 5 5 5 5 5 4 3 4 5 6 4 4 4 5 5 5 6 7 7 6 6 6 5 4 4 4 5 5 5 5
9 9 7 7 7 6 5 4 3 3 3 4 4 6 5 5 6 5 5 4 4 4 5 6 6 5 5 5 5 5 6 7 7 6 6 5 5 5 6 5 6 6 5 5
11 8 7 6 5 4 4 5 5 4 4 4 4 5 5 6 5 5 5 5 5 5 6 6 6 6 5 5 4 5 6 6 5 5 5 5 5 6 8 9 11 12 11 10
10 5 6 6 4 4 5 5 5 5 5 5 4 4 5 6 5 5 5 5 6 6 6 6 6 7 6 5 5 5 6 6 5 5 5 5 5 5 6 7 9 11 11 12
9 6 7 7 6 5 4 4 3 3 4 4 4 4 4 5 5 6 6 5 5 5 6 6 6 7 6 5 5 6 6 7 6 5 5 5 5 5 5 6 6 6 7 10
10 10 9 5 4 3 3 2 3 5 5 5 4 4 4 5 6 7 6 4 4 6 6 6 7 7 5 4 5 6 6 5 5 5 5 5 5 5 5 6 6 6 5 6
6 6 6 6 7 6 5 5 6 7 6 5 5 5 5 5 5 6 5 4 4 6 7 6 7 7 5 5 5 5 5 7 6 5 5 5 5 5 5 5 5 5 5 4
7 8 7 8 8 8 8 8 8 7 6 6 6 4 3 3 5 6 5 4 5 6 7 6 7 6 5 5 5 5 5 5 6 5 5 5 5 5 5 5 5 5 5 5
11 10 8 7 7 7 7 6 6 6 5 4 3 2 3 4 6 6 6 5 5 6 6 6 6 5 5 5 5 5 5 5 4 5 5 5 5 5 5 5 5 6 5 4
8 8 7 7 6 6 6 6 5 4 3 2 3 4 5 5 5 5 4 4 6 7 6 4 6 5 5 6 5 4 4 5 5 5 4 5 5 4 4 5 5 4 4 3
6 6 5 5 4 4 4 3 3 2 2 2 3 3 4 5 4 4 4 6 6 5 4 4 5 4 5 5 6 4 4 5 5 5 4 4 4 4 4 4 4 4 3 3
6 5 5 5 4 3 3 3 3 3 3 3 4 5 5 5 4 3 4 6 5 3 3 4 4 4 4 5 5 4 4 4 4 4 4 4 4 4 4 4 3 4 3 3
6 5 5 5 4 3 3 3 3 4 3 3 3 3 3 4 4 4 5 5 4 4 3 3 3 5 6 6 4 4 4 4 4 4 4 4 4 4 4 4 4 4 4 3
5 5 5 5 5 3 2 3 4 4 4 4 4 4 4 4 3 3 5 3 3 5 4 4 6 8 7 4 4 4 4 4 4 4 4 4 3 4 4 4 4 4 4 4
5 5 4 4 4 3 3 3 3 3 3 3 4 4 3 3 3 3 3 3 4 5 4 5 8 9 6 3 3 4 4 4 4 4 3 3 3 3 4 4 4 4 3 4
5 5 5 5 4 4 4 2 2 2 2 2 3 3 2 2 3 3 3 3 5 6 4 6 8 7 4 3 3 4 4 3 4 4 3 3 4 4 4 4 4 4 3 3
5 4 4 4 4 3 3 3 2 2 2 2 2 1 1 1 2 2 2 3 4 5 4 4 4 4 3 3 3 3 4 4 4 4 4 4 4 4 4 4 4 4 3 3
4 3 3 2 2 3 3 3 3 3 3 2 2 2 1 1 2 2 3 3 3 3 3 3 3 3 3 3 3 3 3 3 3 3 3 4 4 4 4 4 4 4 3 3
Wind_Direction
287 296 292 282 274 259 242 238 245 263 265 278 292 299 316 18 37 20 9 8 7 7 4 358 359 1 3 2 3 5 8 7 2 357 357 356 351 348 346 345 340 335 337 338
290 286 287 281 272 254 251 248 252 266 274 275 287 315 345 357 6 0 354 354 359 4 357 349 348 351 353 351 349 353 358 352 348 347 348 347 341 340 339 337 334 334 333 333
286 317 333 282 245 225 229 230 236 250 260 299 313 328 336 336 341 332 338 348 349 347 342 338 337 341 342 339 339 345 343 339 340 337 336 333 330 333 329 325 326 327 324 324
298 339 264 240 161 232 243 253 250 262 272 285 303 327 323 318 328 339 344 337 333 330 330 332 333 333 333 333 334 331 329 330 331 329 326 326 326 323 320 318 317 313 314 314
261 275 273 266 226 221 243 271 255 254 265 309 4 340 304 331 7 342 323 315 315 318 318 322 323 320 327 329 329 327 325 325 323 322 320 320 318 313 311 310 308 308 308 312
234 254 257 255 140 60 18 276 260 237 272 294 331 300 287 344 337 320 316 314 314 317 320 322 321 323 322 317 317 313 313 313 315 315 312 309 307 306 306 304 301 304 303 303
229 246 262 241 143 118 189 250 236 282 278 262 262 262 282 314 309 305 307 308 311 314 315 314 319 322 312 311 307 308 313 314 314 313 308 303 302 302 301 300 300 298 296 295
202 224 251 186 148 194 229 266 285 291 283 270 267 278 285 287 289 295 300 307 315 313 308 313 320 314 304 304 311 318 317 313 310 308 304 304 299 299 299 297 295 293 293 293
206 223 243 196 213 224 234 256 261 261 267 261 272 277 284 287 290 297 300 302 304 300 302 310 315 307 297 305 319 319 312 305 303 302 299 298 293 294 295 291 288 289 290 292
258 258 255 252 250 246 240 242 251 254 261 260 267 278 287 290 294 298 298 297 300 300 297 300 307 309 299 306 313 307 301 299 298 297 295 293 290 286 283 282 283 284 285 286
254 267 277 257 239 239 242 245 255 258 252 251 260 274 278 283 286 287 292 298 300 292 289 293 304 305 306 311 311 302 298 297 297 293 292 294 289 283 283 273 269 277 275 274
235 227 219 242 230 224 233 242 238 241 259 263 255 267 277 278 281 285 287 292 292 289 287 291 298 298 302 306 302 295 295 295 295 294 292 291 292 295 288 286 287 282 278 277
235 235 235 256 256 232 227 233 230 229 238 254 257 257 266 276 280 282 283 282 280 281 284 288 293 293 297 297 293 285 281 287 290 289 288 288 288 289 294 297 291 288 286 285
231 234 252 246 243 239 234 235 238 247 247 243 249 256 260 271 278 276 275 278 282 285 285 284 285 287 293 293 288 283 282 281 278 280 280 280 280 281 282 287 294 292 292 291
229 219 227 236 239 239 232 225 243 252 252 253 246 248 253 263 271 278 284 289 290 285 281 281 282 287 294 288 284 282 283 281 280 279 278 277 277 277 276 277 278 285 291 290
223 221 222 228 235 238 236 235 241 250 250 252 253 253 254 263 276 283 284 278 277 282 282 281 281 287 289 285 285 283 277 276 278 279 278 276 273 272 274 275 277 278 279 286
206 225 222 227 231 233 231 231 234 245 250 251 252 256 265 277 283 282 282 276 269 276 279 277 280 288 286 282 280 281 280 278 274 274 270 271 272 269 270 272 272 273 273 275
211 215 209 213 222 231 238 238 238 242 244 246 247 246 250 255 266 278 287 292 293 290 280 269 274 286 287 284 279 279 279 278 275 271 271 270 270 271 269 268 268 272 277 280
211 214 215 219 219 220 230 235 236 233 230 211 218 239 251 258 266 279 287 286 284 288 288 284 299 302 289 286 288 280 280 281 281 276 272 272 274 268 265 265 267 268 272 275
210 210 209 214 210 208 220 224 215 225 222 205 220 247 261 266 269 277 279 274 266 266 287 305 304 295 291 291 297 287 279 276 277 280 278 274 273 274 270 267 268 271 272 272
207 204 201 205 211 210 208 201 198 219 223 206 216 236 254 270 268 265 275 283 280 276 294 297 295 293 293 296 295 286 279 277 277 278 278 276 277 277 277 276 275 275 275 275
199 195 200 198 197 214 211 197 200 208 213 220 228 236 249 265 270 273 259 260 279 300 306 297 293 292 298 301 293 287 283 282 282 283 282 281 278 279 281 280 278 278 276 274
189 190 192 191 193 200 202 205 202 200 210 218 223 228 235 247 252 261 280 272 284 297 301 292 295 299 303 299 293 289 286 285 285 284 283 284 282 281 281 282 282 280 280 280
180 181 181 167 154 167 207 219 202 205 215 227 228 226 228 253 271 254 260 282 293 300 297 292 298 304 309 301 295 292 290 289 288 289 289 288 286 285 284 284 285 286 283 281
169 166 162 165 183 202 205 187 181 204 213 230 239 236 231 231 250 275 285 287 295 301 297 298 303 308 307 291 289 289 290 289 291 292 290 290 289 288 287 285 285 287 288 285
168 175 180 188 193 187 175 175 193 206 210 237 262 254 252 261 267 280 290 292 292 295 297 300 304 305 301 296 293 293 294 297 298 296 293 292 291 289 289 289 287 286 286 284
155 159 158 170 183 179 176 183 197 210 211 218 259 269 264 275 281 287 291 294 296 297 298 300 302 304 306 308 308 304 302 300 297 296 297 297 295 294 293 290 289 288 286 284